Time,TemperatureF,DewpointF,PressureIn,WindDirection,WindDirectionDegrees,WindSpeedMPH,WindSpeedGustMPH,Humidity,HourlyPrecipIn,Conditions,Clouds,dailyrainin,SoftwareType,DateUTC
2013-05-31 00:01:00,68.4,64.7,30.09,West,280,0.0,1.0,88,0.00,,---,0.00,VWS V14.01,2013-05-31 04:01:00,
2013-05-31 00:06:00,68.3,64.6,30.09,West,280,0.0,0.0,88,0.00,,---,0.00,VWS V14.01,2013-05-31 04:06:00,
2013-05-31 00:11:00,68.2,64.8,30.09,West,280,0.0,0.0,89,0.00,,---,0.00,VWS V14.01,2013-05-31 04:11:00,
2013-05-31 00:16:00,68.1,64.7,30.10,West,280,0.0,0.0,89,0.00,,---,0.00,VWS V14.01,2013-05-31 04:16:00,
2013-05-31 00:21:00,67.9,64.5,30.09,West,270,0.0,1.0,89,0.00,,---,0.00,VWS V14.01,2013-05-31 04:21:00,
2013-05-31 00:26:00,67.7,64.7,30.10,West,270,0.0,1.0,90,0.00,,---,0.00,VWS V14.01,2013-05-31 04:26:00,
2013-05-31 00:31:00,67.7,64.7,30.10,West,269,0.0,0.0,90,0.00,,---,0.00,VWS V14.01,2013-05-31 04:31:00,
2013-05-31 00:36:00,67.8,64.8,30.10,WSW,239,0.0,0.0,90,0.00,,---,0.00,VWS V14.01,2013-05-31 04:36:00,
2013-05-31 00:41:00,67.7,64.7,30.10,West,266,0.0,1.0,90,0.00,,---,0.00,VWS V14.01,2013-05-31 04:41:00,
2013-05-31 00:46:00,67.5,64.5,30.10,West,267,0.0,1.0,90,0.00,,---,0.00,VWS V14.01,2013-05-31 04:46:00,
2013-05-31 00:51:00,67.5,64.8,30.11,West,267,0.0,1.0,91,0.00,,---,0.00,VWS V14.01,2013-05-31 04:51:00,
2013-05-31 00:56:00,67.5,64.8,30.11,West,267,0.0,1.0,91,0.00,,---,0.00,VWS V14.01,2013-05-31 04:56:00,
2013-05-31 01:01:00,67.4,64.7,30.11,West,266,0.0,0.0,91,0.00,,---,0.00,VWS V14.01,2013-05-31 05:01:00,
2013-05-31 01:06:00,67.3,64.6,30.11,West,267,0.0,0.0,91,0.00,,---,0.00,VWS V14.01,2013-05-31 05:06:00,
2013-05-31 01:11:00,67.2,64.5,30.11,West,266,0.0,0.0,91,0.00,,---,0.00,VWS V14.01,2013-05-31 05:11:00,
2013-05-31 01:16:00,67.1,64.4,30.10,West,267,0.0,0.0,91,0.00,,---,0.00,VWS V14.01,2013-05-31 05:16:00,
2013-05-31 01:21:00,66.9,64.5,30.10,West,266,0.0,0.0,92,0.00,,---,0.00,VWS V14.01,2013-05-31 05:21:00,
2013-05-31 01:26:00,66.9,64.5,30.10,West,267,0.0,0.0,92,0.00,,---,0.00,VWS V14.01,2013-05-31 05:26:00,
2013-05-31 01:31:00,66.7,64.3,30.10,West,266,0.0,0.0,92,0.00,,---,0.00,VWS V14.01,2013-05-31 05:31:00,
2013-05-31 01:36:00,66.6,64.2,30.10,West,266,0.0,0.0,92,0.00,,---,0.00,VWS V14.01,2013-05-31 05:36:00,
2013-05-31 01:41:00,66.5,64.4,30.10,West,266,0.0,0.0,93,0.00,,---,0.00,VWS V14.01,2013-05-31 05:41:00,
2013-05-31 01:46:00,66.4,64.3,30.10,West,267,0.0,0.0,93,0.00,,---,0.00,VWS V14.01,2013-05-31 05:46:00,
2013-05-31 01:51:00,66.3,64.2,30.10,West,266,0.0,0.0,93,0.00,,---,0.00,VWS V14.01,2013-05-31 05:51:00,
2013-05-31 01:56:00,66.2,64.1,30.10,West,266,0.0,0.0,93,0.00,,---,0.00,VWS V14.01,2013-05-31 05:56:00,
2013-05-31 02:01:00,66.0,63.9,30.10,West,267,0.0,0.0,93,0.00,,---,0.00,VWS V14.01,2013-05-31 06:01:00,
2013-05-31 02:06:00,66.0,63.9,30.10,West,266,0.0,0.0,93,0.00,,---,0.00,VWS V14.01,2013-05-31 06:06:00,
2013-05-31 02:11:00,65.9,64.1,30.10,West,266,0.0,0.0,94,0.00,,---,0.00,VWS V14.01,2013-05-31 06:11:00,
2013-05-31 02:16:00,66.0,64.2,30.10,West,266,0.0,0.0,94,0.00,,---,0.00,VWS V14.01,2013-05-31 06:16:00,
2013-05-31 02:21:00,65.9,64.1,30.10,West,266,0.0,0.0,94,0.00,,---,0.00,VWS V14.01,2013-05-31 06:21:00,
2013-05-31 02:26:00,65.8,64.0,30.10,West,267,0.0,0.0,94,0.00,,---,0.00,VWS V14.01,2013-05-31 06:26:00,
2013-05-31 02:31:00,65.7,63.9,30.10,West,267,0.0,0.0,94,0.00,,---,0.00,VWS V14.01,2013-05-31 06:31:00,
2013-05-31 02:36:00,65.6,63.8,30.10,West,267,0.0,0.0,94,0.00,,---,0.00,VWS V14.01,2013-05-31 06:36:00,
2013-05-31 02:41:00,65.5,63.7,30.10,West,266,0.0,0.0,94,0.00,,---,0.00,VWS V14.01,2013-05-31 06:41:00,
2013-05-31 02:46:00,65.4,63.9,30.10,West,267,0.0,0.0,95,0.00,,---,0.00,VWS V14.01,2013-05-31 06:46:00,
2013-05-31 02:51:00,65.3,63.8,30.10,West,267,0.0,0.0,95,0.00,,---,0.00,VWS V14.01,2013-05-31 06:51:00,
2013-05-31 02:56:00,65.3,63.8,30.10,West,267,0.0,0.0,95,0.00,,---,0.00,VWS V14.01,2013-05-31 06:56:00,
2013-05-31 03:01:00,65.3,63.8,30.10,West,266,0.0,0.0,95,0.00,,---,0.00,VWS V14.01,2013-05-31 07:01:00,
2013-05-31 03:06:00,65.2,63.7,30.10,West,266,0.0,0.0,95,0.00,,---,0.00,VWS V14.01,2013-05-31 07:06:00,
2013-05-31 03:11:00,65.2,63.7,30.10,West,266,0.0,0.0,95,0.00,,---,0.00,VWS V14.01,2013-05-31 07:11:00,
2013-05-31 03:16:00,65.1,63.6,30.10,West,266,0.0,0.0,95,0.00,,---,0.00,VWS V14.01,2013-05-31 07:16:00,
2013-05-31 03:21:00,65.0,63.5,30.10,West,267,0.0,0.0,95,0.00,,---,0.00,VWS V14.01,2013-05-31 07:21:00,
2013-05-31 03:26:00,65.0,63.5,30.10,West,266,0.0,0.0,95,0.00,,---,0.00,VWS V14.01,2013-05-31 07:26:00,
2013-05-31 03:31:00,64.9,63.4,30.10,West,267,0.0,0.0,95,0.00,,---,0.00,VWS V14.01,2013-05-31 07:31:00,
2013-05-31 03:36:00,64.9,63.7,30.10,West,267,0.0,0.0,96,0.00,,---,0.00,VWS V14.01,2013-05-31 07:36:00,
2013-05-31 03:41:00,64.8,63.6,30.10,West,267,0.0,0.0,96,0.00,,---,0.00,VWS V14.01,2013-05-31 07:41:00,
2013-05-31 03:46:00,64.8,63.6,30.10,West,267,0.0,0.0,96,0.00,,---,0.00,VWS V14.01,2013-05-31 07:46:00,
2013-05-31 03:51:00,64.7,63.5,30.10,West,266,0.0,0.0,96,0.00,,---,0.00,VWS V14.01,2013-05-31 07:51:00,
2013-05-31 03:56:00,64.7,63.5,30.10,West,266,0.0,0.0,96,0.00,,---,0.00,VWS V14.01,2013-05-31 07:56:00,
2013-05-31 04:01:00,64.6,63.4,30.10,West,266,0.0,0.0,96,0.00,,---,0.00,VWS V14.01,2013-05-31 08:01:00,
2013-05-31 04:06:00,64.5,63.3,30.10,West,266,0.0,0.0,96,0.00,,---,0.00,VWS V14.01,2013-05-31 08:06:00,
2013-05-31 04:11:00,64.4,63.2,30.10,West,267,0.0,0.0,96,0.00,,---,0.00,VWS V14.01,2013-05-31 08:11:00,
2013-05-31 04:16:00,64.4,63.2,30.10,West,266,0.0,0.0,96,0.00,,---,0.00,VWS V14.01,2013-05-31 08:16:00,
2013-05-31 04:21:00,64.3,63.1,30.10,West,267,0.0,0.0,96,0.00,,---,0.00,VWS V14.01,2013-05-31 08:21:00,
2013-05-31 04:26:00,64.2,63.0,30.10,West,266,0.0,0.0,96,0.00,,---,0.00,VWS V14.01,2013-05-31 08:26:00,
2013-05-31 04:31:00,64.2,63.0,30.10,West,266,0.0,0.0,96,0.00,,---,0.00,VWS V14.01,2013-05-31 08:31:00,
2013-05-31 04:36:00,64.2,63.0,30.09,West,266,0.0,0.0,96,0.00,,---,0.00,VWS V14.01,2013-05-31 08:36:00,
2013-05-31 04:41:00,64.1,62.9,30.09,West,266,0.0,0.0,96,0.00,,---,0.00,VWS V14.01,2013-05-31 08:41:00,
2013-05-31 04:46:00,64.1,62.9,30.10,West,266,0.0,0.0,96,0.00,,---,0.00,VWS V14.01,2013-05-31 08:46:00,
2013-05-31 04:51:00,64.1,63.2,30.10,West,266,0.0,0.0,97,0.00,,---,0.00,VWS V14.01,2013-05-31 08:51:00,
2013-05-31 04:56:00,64.0,63.1,30.10,West,267,0.0,0.0,97,0.00,,---,0.00,VWS V14.01,2013-05-31 08:56:00,
2013-05-31 05:01:00,63.9,63.0,30.10,West,267,0.0,0.0,97,0.00,,---,0.00,VWS V14.01,2013-05-31 09:01:00,
2013-05-31 05:06:00,63.8,62.9,30.10,West,267,0.0,0.0,97,0.00,,---,0.00,VWS V14.01,2013-05-31 09:06:00,
2013-05-31 05:11:00,63.8,62.9,30.10,West,266,0.0,0.0,97,0.00,,---,0.00,VWS V14.01,2013-05-31 09:11:00,
2013-05-31 05:16:00,63.8,62.9,30.10,West,266,0.0,0.0,97,0.00,,---,0.00,VWS V14.01,2013-05-31 09:16:00,
2013-05-31 05:21:00,63.7,62.8,30.10,West,266,0.0,0.0,97,0.00,,---,0.00,VWS V14.01,2013-05-31 09:21:00,
2013-05-31 05:26:00,63.7,62.8,30.10,West,267,0.0,0.0,97,0.00,,---,0.00,VWS V14.01,2013-05-31 09:26:00,
2013-05-31 05:31:00,63.6,62.7,30.10,West,267,0.0,0.0,97,0.00,,---,0.00,VWS V14.01,2013-05-31 09:31:00,
2013-05-31 05:36:00,63.6,62.7,30.10,West,267,0.0,0.0,97,0.00,,---,0.00,VWS V14.01,2013-05-31 09:36:00,
2013-05-31 05:41:00,63.6,62.7,30.11,WSW,249,0.0,0.0,97,0.00,,---,0.00,VWS V14.01,2013-05-31 09:41:00,
2013-05-31 05:46:00,63.6,62.7,30.11,WSW,248,0.0,0.0,97,0.00,,---,0.00,VWS V14.01,2013-05-31 09:46:00,
2013-05-31 05:51:00,63.6,62.7,30.11,WSW,249,0.0,0.0,97,0.00,,---,0.00,VWS V14.01,2013-05-31 09:51:00,
2013-05-31 05:56:00,63.6,62.7,30.11,WSW,249,0.0,0.0,97,0.00,,---,0.00,VWS V14.01,2013-05-31 09:56:00,
2013-05-31 06:01:00,63.6,62.7,30.11,WSW,248,0.0,0.0,97,0.00,,---,0.00,VWS V14.01,2013-05-31 10:01:00,
2013-05-31 06:06:00,63.6,62.7,30.11,WSW,249,0.0,0.0,97,0.00,,---,0.00,VWS V14.01,2013-05-31 10:06:00,
2013-05-31 06:11:00,63.7,62.8,30.11,WSW,249,0.0,0.0,97,0.00,,---,0.00,VWS V14.01,2013-05-31 10:11:00,
2013-05-31 06:16:00,63.8,62.9,30.12,WSW,249,0.0,0.0,97,0.00,,---,0.00,VWS V14.01,2013-05-31 10:16:00,
2013-05-31 06:21:00,63.9,63.0,30.12,WSW,249,0.0,0.0,97,0.00,,---,0.00,VWS V14.01,2013-05-31 10:21:00,
2013-05-31 06:26:00,64.1,63.2,30.12,WSW,249,0.0,0.0,97,0.00,,---,0.00,VWS V14.01,2013-05-31 10:26:00,
2013-05-31 06:31:00,64.3,63.7,30.12,WSW,249,0.0,0.0,98,0.00,,---,0.00,VWS V14.01,2013-05-31 10:31:00,
2013-05-31 06:36:00,64.4,63.8,30.12,WSW,249,0.0,0.0,98,0.00,,---,0.00,VWS V14.01,2013-05-31 10:36:00,
2013-05-31 06:41:00,64.5,63.9,30.12,WSW,249,0.0,0.0,98,0.00,,---,0.00,VWS V14.01,2013-05-31 10:41:00,
2013-05-31 06:46:00,64.7,64.1,30.12,WSW,249,0.0,0.0,98,0.00,,---,0.00,VWS V14.01,2013-05-31 10:46:00,
2013-05-31 06:51:00,64.9,64.3,30.12,WSW,248,0.0,0.0,98,0.00,,---,0.00,VWS V14.01,2013-05-31 10:51:00,
2013-05-31 06:56:00,65.1,64.5,30.12,WSW,249,0.0,0.0,98,0.00,,---,0.00,VWS V14.01,2013-05-31 10:56:00,
2013-05-31 07:00:00,65.3,64.7,30.12,WSW,249,0.0,0.0,98,0.00,,---,0.00,VWS V14.01,2013-05-31 11:00:00,
2013-05-31 07:05:00,65.6,65.0,30.12,WSW,249,0.0,0.0,98,0.00,,---,0.00,VWS V14.01,2013-05-31 11:05:00,
2013-05-31 07:10:00,65.9,65.3,30.12,WSW,249,0.0,0.0,98,0.00,,---,0.00,VWS V14.01,2013-05-31 11:10:00,
2013-05-31 07:15:00,66.3,65.7,30.12,WSW,249,0.0,0.0,98,0.00,,---,0.00,VWS V14.01,2013-05-31 11:15:00,
2013-05-31 07:20:00,66.7,66.1,30.13,WSW,249,0.0,0.0,98,0.00,,---,0.00,VWS V14.01,2013-05-31 11:20:00,
2013-05-31 07:25:00,67.2,66.6,30.13,WSW,249,0.0,0.0,98,0.00,,---,0.00,VWS V14.01,2013-05-31 11:25:00,
2013-05-31 07:30:00,67.6,67.0,30.13,WSW,249,0.0,0.0,98,0.00,,---,0.00,VWS V14.01,2013-05-31 11:30:00,
2013-05-31 07:35:00,68.1,67.5,30.13,WSW,249,0.0,0.0,98,0.00,,---,0.00,VWS V14.01,2013-05-31 11:35:00,
2013-05-31 07:40:00,68.5,67.9,30.13,SW,230,0.0,0.0,98,0.00,,---,0.00,VWS V14.01,2013-05-31 11:40:00,
2013-05-31 07:45:00,69.1,68.2,30.13,SSE,152,0.0,0.0,97,0.00,,---,0.00,VWS V14.01,2013-05-31 11:45:00,
2013-05-31 07:50:00,69.7,68.5,30.13,SSE,150,0.0,0.0,96,0.00,,---,0.00,VWS V14.01,2013-05-31 11:50:00,
2013-05-31 07:55:00,70.2,68.7,30.12,SSE,150,0.0,0.0,95,0.00,,---,0.00,VWS V14.01,2013-05-31 11:55:00,
2013-05-31 08:00:00,70.9,68.8,30.13,SSE,156,0.0,0.0,93,0.00,,---,0.00,VWS V14.01,2013-05-31 12:00:00,
2013-05-31 08:05:00,71.6,68.5,30.13,West,273,0.0,0.0,90,0.00,,---,0.00,VWS V14.01,2013-05-31 12:05:00,
2013-05-31 08:10:00,72.4,68.3,30.13,West,273,0.0,1.0,87,0.00,,---,0.00,VWS V14.01,2013-05-31 12:10:00,
2013-05-31 08:15:00,73.1,68.7,30.12,SSW,195,0.0,1.0,86,0.00,,---,0.00,VWS V14.01,2013-05-31 12:15:00,
2013-05-31 08:20:00,73.5,68.7,30.12,West,266,0.0,1.0,85,0.00,,---,0.00,VWS V14.01,2013-05-31 12:20:00,
2013-05-31 08:25:00,74.0,68.5,30.12,West,266,0.0,1.0,83,0.00,,---,0.00,VWS V14.01,2013-05-31 12:25:00,
2013-05-31 08:30:00,74.5,68.7,30.12,West,264,2.0,2.0,82,0.00,,---,0.00,VWS V14.01,2013-05-31 12:30:00,
2013-05-31 08:35:00,75.0,69.1,30.12,West,264,0.0,1.0,82,0.00,,---,0.00,VWS V14.01,2013-05-31 12:35:00,
2013-05-31 08:40:00,75.5,68.9,30.12,West,270,0.0,2.0,80,0.00,,---,0.00,VWS V14.01,2013-05-31 12:40:00,
2013-05-31 08:45:00,76.0,69.4,30.12,West,262,0.0,2.0,80,0.00,,---,0.00,VWS V14.01,2013-05-31 12:45:00,
2013-05-31 08:50:00,76.5,69.9,30.12,SSW,193,0.0,2.0,80,0.00,,---,0.00,VWS V14.01,2013-05-31 12:50:00,
2013-05-31 08:55:00,77.0,70.0,30.12,West,271,1.0,3.0,79,0.00,,---,0.00,VWS V14.01,2013-05-31 12:55:00,
2013-05-31 09:00:00,77.5,70.5,30.12,West,263,0.0,3.0,79,0.00,,---,0.00,VWS V14.01,2013-05-31 13:00:00,
2013-05-31 09:05:00,77.9,70.5,30.12,South,187,0.0,0.0,78,0.00,,---,0.00,VWS V14.01,2013-05-31 13:05:00,
2013-05-31 09:10:00,78.3,70.9,30.12,SW,224,0.0,0.0,78,0.00,,---,0.00,VWS V14.01,2013-05-31 13:10:00,
2013-05-31 09:15:00,78.6,70.8,30.11,West,271,0.0,2.0,77,0.00,,---,0.00,VWS V14.01,2013-05-31 13:15:00,
2013-05-31 09:20:00,79.0,70.8,30.11,West,270,0.0,2.0,76,0.00,,---,0.00,VWS V14.01,2013-05-31 13:20:00,
2013-05-31 09:25:00,79.3,70.7,30.11,South,181,0.0,2.0,75,0.00,,---,0.00,VWS V14.01,2013-05-31 13:25:00,
2013-05-31 09:30:00,79.8,70.8,30.11,West,269,0.0,2.0,74,0.00,,---,0.00,VWS V14.01,2013-05-31 13:30:00,
2013-05-31 09:35:00,80.2,71.2,30.11,WSW,253,0.0,0.0,74,0.00,,---,0.00,VWS V14.01,2013-05-31 13:35:00,
2013-05-31 09:40:00,80.6,71.6,30.11,West,264,0.0,0.0,74,0.00,,---,0.00,VWS V14.01,2013-05-31 13:40:00,
2013-05-31 09:45:00,80.8,70.5,30.11,West,273,2.0,3.0,71,0.00,,---,0.00,VWS V14.01,2013-05-31 13:45:00,
2013-05-31 09:50:00,81.0,71.1,30.11,West,266,1.0,3.0,72,0.00,,---,0.00,VWS V14.01,2013-05-31 13:50:00,
2013-05-31 09:55:00,81.2,70.9,30.11,West,274,2.0,4.0,71,0.00,,---,0.00,VWS V14.01,2013-05-31 13:55:00,
2013-05-31 10:00:00,81.4,71.1,30.11,West,268,1.0,4.0,71,0.00,,---,0.00,VWS V14.01,2013-05-31 14:00:00,
2013-05-31 10:05:00,81.8,71.1,30.11,West,280,1.0,2.0,70,0.00,,---,0.00,VWS V14.01,2013-05-31 14:05:00,
2013-05-31 10:10:00,82.1,70.5,30.11,West,269,2.0,3.0,68,0.00,,---,0.00,VWS V14.01,2013-05-31 14:10:00,
2013-05-31 10:15:00,82.4,70.8,30.10,West,263,1.0,3.0,68,0.00,,---,0.00,VWS V14.01,2013-05-31 14:15:00,
2013-05-31 10:20:00,82.8,71.2,30.10,West,277,1.0,3.0,68,0.00,,---,0.00,VWS V14.01,2013-05-31 14:20:00,
2013-05-31 10:25:00,83.3,71.2,30.10,SSW,208,0.0,3.0,67,0.00,,---,0.00,VWS V14.01,2013-05-31 14:25:00,
2013-05-31 10:30:00,84.0,71.4,30.10,SSE,158,0.0,3.0,66,0.00,,---,0.00,VWS V14.01,2013-05-31 14:30:00,
2013-05-31 10:35:00,84.7,70.7,30.10,South,180,0.0,1.0,63,0.00,,---,0.00,VWS V14.01,2013-05-31 14:35:00,
2013-05-31 10:40:00,85.3,70.8,30.10,West,266,1.0,2.0,62,0.00,,---,0.00,VWS V14.01,2013-05-31 14:40:00,
2013-05-31 10:45:00,85.3,70.3,30.10,NW,308,1.0,2.0,61,0.00,,---,0.00,VWS V14.01,2013-05-31 14:45:00,
2013-05-31 10:50:00,85.5,71.0,30.10,NW,316,0.0,2.0,62,0.00,,---,0.00,VWS V14.01,2013-05-31 14:50:00,
2013-05-31 10:55:00,86.2,71.2,30.09,WNW,297,0.0,2.0,61,0.00,,---,0.00,VWS V14.01,2013-05-31 14:55:00,
2013-05-31 11:00:00,87.0,70.4,30.09,SSE,153,1.0,2.0,58,0.00,,---,0.00,VWS V14.01,2013-05-31 15:00:00,
2013-05-31 11:05:00,87.9,69.7,30.09,SSE,163,0.0,3.0,55,0.00,,---,0.00,VWS V14.01,2013-05-31 15:05:00,
2013-05-31 11:10:00,88.8,70.6,30.09,South,177,0.0,3.0,55,0.00,,---,0.00,VWS V14.01,2013-05-31 15:10:00,
2013-05-31 11:15:00,88.4,69.7,30.09,West,271,1.0,4.0,54,0.00,,---,0.00,VWS V14.01,2013-05-31 15:15:00,
2013-05-31 11:20:00,88.4,68.6,30.09,South,170,0.0,4.0,52,0.00,,---,0.00,VWS V14.01,2013-05-31 15:20:00,
2013-05-31 11:25:00,89.3,69.4,30.09,South,170,0.0,4.0,52,0.00,,---,0.00,VWS V14.01,2013-05-31 15:25:00,
2013-05-31 11:30:00,89.9,69.9,30.09,West,267,2.0,4.0,52,0.00,,---,0.00,VWS V14.01,2013-05-31 15:30:00,
2013-05-31 11:35:00,89.3,69.9,30.09,West,271,3.0,4.0,53,0.00,,---,0.00,VWS V14.01,2013-05-31 15:35:00,
2013-05-31 11:40:00,89.2,69.8,30.09,South,186,0.0,4.0,53,0.00,,---,0.00,VWS V14.01,2013-05-31 15:40:00,
2013-05-31 11:45:00,90.2,69.1,30.09,West,271,4.0,4.0,50,0.00,,---,0.00,VWS V14.01,2013-05-31 15:45:00,
2013-05-31 11:50:00,89.9,65.7,30.08,West,267,2.0,4.0,45,0.00,,---,0.00,VWS V14.01,2013-05-31 15:50:00,
2013-05-31 11:55:00,89.7,66.8,30.08,SW,218,0.0,5.0,47,0.00,,---,0.00,VWS V14.01,2013-05-31 15:55:00,
2013-05-31 12:00:00,90.1,66.6,30.08,West,278,0.0,5.0,46,0.00,,---,0.00,VWS V14.01,2013-05-31 16:00:00,
2013-05-31 12:05:00,90.7,68.3,30.08,West,278,0.0,3.0,48,0.00,,---,0.00,VWS V14.01,2013-05-31 16:05:00,
2013-05-31 12:10:00,90.9,68.5,30.08,SSE,163,1.0,3.0,48,0.00,,---,0.00,VWS V14.01,2013-05-31 16:10:00,
2013-05-31 12:15:00,91.5,69.1,30.08,WNW,284,1.0,3.0,48,0.00,,---,0.00,VWS V14.01,2013-05-31 16:15:00,
2013-05-31 12:20:00,92.1,68.4,30.08,WNW,294,0.0,3.0,46,0.00,,---,0.00,VWS V14.01,2013-05-31 16:20:00,
2013-05-31 12:25:00,92.5,69.3,30.08,West,277,2.0,3.0,47,0.00,,---,0.00,VWS V14.01,2013-05-31 16:25:00,
2013-05-31 12:30:00,91.5,65.9,30.08,West,271,3.0,6.0,43,0.00,,---,0.00,VWS V14.01,2013-05-31 16:30:00,
2013-05-31 12:35:00,91.0,66.1,30.07,West,277,3.0,6.0,44,0.00,,---,0.00,VWS V14.01,2013-05-31 16:35:00,
2013-05-31 12:40:00,90.6,66.4,30.07,WSW,256,1.0,6.0,45,0.00,,---,0.00,VWS V14.01,2013-05-31 16:40:00,
2013-05-31 12:45:00,91.0,66.7,30.07,SW,236,1.0,6.0,45,0.00,,---,0.00,VWS V14.01,2013-05-31 16:45:00,
2013-05-31 12:50:00,91.5,65.9,30.07,SE,141,2.0,6.0,43,0.00,,---,0.00,VWS V14.01,2013-05-31 16:50:00,
2013-05-31 12:55:00,91.7,66.7,30.07,NE,47,1.0,6.0,44,0.00,,---,0.00,VWS V14.01,2013-05-31 16:55:00,
2013-05-31 13:00:00,92.0,65.6,30.07,East,100,1.0,6.0,42,0.00,,---,0.00,VWS V14.01,2013-05-31 17:00:00,
2013-05-31 13:05:00,92.0,65.6,30.07,NNW,336,1.0,4.0,42,0.00,,---,0.00,VWS V14.01,2013-05-31 17:05:00,
2013-05-31 13:10:00,92.3,67.2,30.06,ESE,120,1.0,4.0,44,0.00,,---,0.00,VWS V14.01,2013-05-31 17:10:00,
2013-05-31 13:15:00,92.1,67.1,30.06,NE,47,2.0,6.0,44,0.00,,---,0.00,VWS V14.01,2013-05-31 17:15:00,
2013-05-31 13:20:00,92.2,67.2,30.06,West,276,1.0,6.0,44,0.00,,---,0.00,VWS V14.01,2013-05-31 17:20:00,
2013-05-31 13:25:00,92.0,67.0,30.06,WSW,250,0.0,6.0,44,0.00,,---,0.00,VWS V14.01,2013-05-31 17:25:00,
2013-05-31 13:30:00,92.3,67.2,30.06,WSW,250,1.0,6.0,44,0.00,,---,0.00,VWS V14.01,2013-05-31 17:30:00,
2013-05-31 13:35:00,92.9,67.1,30.06,SE,136,2.0,4.0,43,0.00,,---,0.00,VWS V14.01,2013-05-31 17:35:00,
2013-05-31 13:40:00,93.4,67.6,30.05,SE,146,2.0,4.0,43,0.00,,---,0.00,VWS V14.01,2013-05-31 17:40:00,
2013-05-31 13:45:00,94.0,68.1,30.05,ESE,118,1.0,4.0,43,0.00,,---,0.00,VWS V14.01,2013-05-31 17:45:00,
2013-05-31 13:50:00,94.3,67.0,30.05,SSE,160,1.0,4.0,41,0.00,,---,0.00,VWS V14.01,2013-05-31 17:50:00,
2013-05-31 13:55:00,94.3,67.0,30.05,West,280,2.0,4.0,41,0.00,,---,0.00,VWS V14.01,2013-05-31 17:55:00,
2013-05-31 14:00:00,94.1,66.8,30.05,WSW,252,0.0,4.0,41,0.00,,---,0.00,VWS V14.01,2013-05-31 18:00:00,
2013-05-31 14:05:00,94.1,66.8,30.05,WSW,256,3.0,5.0,41,0.00,,---,0.00,VWS V14.01,2013-05-31 18:05:00,
2013-05-31 14:10:00,93.4,66.2,30.04,SSE,152,0.0,5.0,41,0.00,,---,0.00,VWS V14.01,2013-05-31 18:10:00,
2013-05-31 14:15:00,92.8,67.0,30.04,West,273,2.0,5.0,43,0.00,,---,0.00,VWS V14.01,2013-05-31 18:15:00,
2013-05-31 14:20:00,91.5,67.2,30.04,WSW,252,0.0,5.0,45,0.00,,---,0.00,VWS V14.01,2013-05-31 18:20:00,
2013-05-31 14:25:00,91.0,67.4,30.04,East,101,0.0,5.0,46,0.00,,---,0.00,VWS V14.01,2013-05-31 18:25:00,
2013-05-31 14:30:00,91.1,66.2,30.04,South,177,0.0,5.0,44,0.00,,---,0.00,VWS V14.01,2013-05-31 18:30:00,
2013-05-31 14:35:00,91.3,66.3,30.04,SSE,150,2.0,3.0,44,0.00,,---,0.00,VWS V14.01,2013-05-31 18:35:00,
2013-05-31 14:40:00,91.8,66.8,30.04,West,261,4.0,4.0,44,0.00,,---,0.00,VWS V14.01,2013-05-31 18:40:00,
2013-05-31 14:45:00,92.2,65.8,30.04,ESE,121,3.0,4.0,42,0.00,,---,0.00,VWS V14.01,2013-05-31 18:45:00,
2013-05-31 14:50:00,92.6,68.8,30.04,WNW,300,1.0,4.0,46,0.00,,---,0.00,VWS V14.01,2013-05-31 18:50:00,
2013-05-31 14:55:00,93.3,67.5,30.03,WSW,250,4.0,4.0,43,0.00,,---,0.00,VWS V14.01,2013-05-31 18:55:00,
2013-05-31 15:00:00,93.3,67.5,30.03,West,269,8.0,9.0,43,0.00,,---,0.00,VWS V14.01,2013-05-31 19:00:00,
2013-05-31 15:05:00,92.5,64.7,30.03,West,277,2.0,6.0,40,0.00,,---,0.00,VWS V14.01,2013-05-31 19:05:00,
2013-05-31 15:10:00,91.7,64.0,30.03,WSW,251,2.0,9.0,40,0.00,,---,0.00,VWS V14.01,2013-05-31 19:10:00,
2013-05-31 15:15:00,91.5,63.1,30.04,WSW,246,1.0,9.0,39,0.00,,---,0.00,VWS V14.01,2013-05-31 19:15:00,
2013-05-31 15:20:00,91.3,62.2,30.04,SE,143,1.0,9.0,38,0.00,,---,0.00,VWS V14.01,2013-05-31 19:20:00,
2013-05-31 15:25:00,91.4,62.2,30.03,WNW,282,1.0,9.0,38,0.00,,---,0.00,VWS V14.01,2013-05-31 19:25:00,
2013-05-31 15:30:00,90.9,64.0,30.03,SE,141,2.0,9.0,41,0.00,,---,0.00,VWS V14.01,2013-05-31 19:30:00,
2013-05-31 15:35:00,91.0,63.3,30.03,ESE,108,0.0,2.0,40,0.00,,---,0.00,VWS V14.01,2013-05-31 19:35:00,
2013-05-31 15:40:00,91.3,65.0,30.03,West,270,0.0,2.0,42,0.00,,---,0.00,VWS V14.01,2013-05-31 19:40:00,
2013-05-31 15:45:00,91.8,65.5,30.02,ESE,120,2.0,2.0,42,0.00,,---,0.00,VWS V14.01,2013-05-31 19:45:00,
2013-05-31 15:50:00,92.7,64.9,30.02,SE,134,0.0,2.0,40,0.00,,---,0.00,VWS V14.01,2013-05-31 19:50:00,
2013-05-31 15:55:00,93.6,64.2,30.02,WNW,291,1.0,2.0,38,0.00,,---,0.00,VWS V14.01,2013-05-31 19:55:00,
2013-05-31 16:00:00,93.9,65.2,30.01,East,83,2.0,2.0,39,0.00,,---,0.00,VWS V14.01,2013-05-31 20:00:00,
2013-05-31 16:05:00,93.9,65.2,30.01,WNW,298,1.0,7.0,39,0.00,,---,0.00,VWS V14.01,2013-05-31 20:05:00,
2013-05-31 16:10:00,94.3,64.8,30.01,WSW,239,1.0,7.0,38,0.00,,---,0.00,VWS V14.01,2013-05-31 20:10:00,
2013-05-31 16:15:00,94.3,65.6,30.01,WNW,283,0.0,7.0,39,0.00,,---,0.00,VWS V14.01,2013-05-31 20:15:00,
2013-05-31 16:20:00,94.0,64.6,30.01,West,276,1.0,7.0,38,0.00,,---,0.00,VWS V14.01,2013-05-31 20:20:00,
2013-05-31 16:25:00,92.9,65.0,30.01,WNW,291,1.0,7.0,40,0.00,,---,0.00,VWS V14.01,2013-05-31 20:25:00,
2013-05-31 16:30:00,92.3,63.8,30.01,West,267,5.0,7.0,39,0.00,,---,0.00,VWS V14.01,2013-05-31 20:30:00,
2013-05-31 16:35:00,91.8,64.8,30.01,WSW,255,1.0,6.0,41,0.00,,---,0.00,VWS V14.01,2013-05-31 20:35:00,
2013-05-31 16:40:00,91.8,65.5,30.01,WNW,286,3.0,6.0,42,0.00,,---,0.00,VWS V14.01,2013-05-31 20:40:00,
2013-05-31 16:45:00,91.6,63.9,30.01,West,264,3.0,8.0,40,0.00,,---,0.00,VWS V14.01,2013-05-31 20:45:00,
2013-05-31 16:50:00,91.5,63.8,30.01,SSE,167,1.0,8.0,40,0.00,,---,0.00,VWS V14.01,2013-05-31 20:50:00,
2013-05-31 16:55:00,91.4,64.4,30.01,WNW,283,1.0,8.0,41,0.00,,---,0.00,VWS V14.01,2013-05-31 20:55:00,
2013-05-31 17:00:00,91.0,64.1,30.01,WNW,284,3.0,8.0,41,0.00,,---,0.00,VWS V14.01,2013-05-31 21:00:00,
2013-05-31 17:05:00,90.9,64.7,30.01,South,179,0.0,5.0,42,0.00,,---,0.00,VWS V14.01,2013-05-31 21:05:00,
2013-05-31 17:10:00,90.8,64.6,30.01,NW,304,3.0,7.0,42,0.00,,---,0.00,VWS V14.01,2013-05-31 21:10:00,
2013-05-31 17:15:00,90.3,64.8,30.00,West,276,5.0,11.0,43,0.00,,---,0.00,VWS V14.01,2013-05-31 21:15:00,
2013-05-31 17:20:00,90.1,65.3,30.00,East,100,1.0,11.0,44,0.00,,---,0.00,VWS V14.01,2013-05-31 21:20:00,
2013-05-31 17:25:00,89.9,65.7,30.00,West,269,3.0,11.0,45,0.00,,---,0.00,VWS V14.01,2013-05-31 21:25:00,
2013-05-31 17:30:00,89.7,66.2,30.00,West,276,3.0,11.0,46,0.00,,---,0.00,VWS V14.01,2013-05-31 21:30:00,
2013-05-31 17:35:00,89.3,65.2,30.00,WSW,255,1.0,3.0,45,0.00,,---,0.00,VWS V14.01,2013-05-31 21:35:00,
2013-05-31 17:40:00,89.0,65.6,30.00,West,276,0.0,3.0,46,0.00,,---,0.00,VWS V14.01,2013-05-31 21:40:00,
2013-05-31 17:45:00,88.6,66.4,30.00,West,262,0.0,3.0,48,0.00,,---,0.00,VWS V14.01,2013-05-31 21:45:00,
2013-05-31 17:50:00,88.2,64.8,30.00,WSW,253,1.0,3.0,46,0.00,,---,0.00,VWS V14.01,2013-05-31 21:50:00,
2013-05-31 17:55:00,88.2,66.1,30.00,West,266,0.0,3.0,48,0.00,,---,0.00,VWS V14.01,2013-05-31 21:55:00,
2013-05-31 18:00:00,88.1,66.0,30.00,SE,127,0.0,3.0,48,0.00,,---,0.00,VWS V14.01,2013-05-31 22:00:00,
2013-05-31 18:05:00,88.3,63.0,30.00,SE,127,0.0,0.0,43,0.00,,---,0.00,VWS V14.01,2013-05-31 22:05:00,
2013-05-31 18:10:00,88.6,67.6,29.99,SE,127,0.0,0.0,50,0.00,,---,0.00,VWS V14.01,2013-05-31 22:10:00,
2013-05-31 18:15:00,88.3,64.9,29.99,SE,127,0.0,0.0,46,0.00,,---,0.00,VWS V14.01,2013-05-31 22:15:00,
2013-05-31 18:20:00,88.1,63.5,29.99,WNW,283,0.0,2.0,44,0.00,,---,0.00,VWS V14.01,2013-05-31 22:20:00,
2013-05-31 18:25:00,88.0,65.9,29.99,West,269,0.0,2.0,48,0.00,,---,0.00,VWS V14.01,2013-05-31 22:25:00,
2013-05-31 18:30:00,87.9,64.6,29.99,West,269,0.0,2.0,46,0.00,,---,0.00,VWS V14.01,2013-05-31 22:30:00,
2013-05-31 18:35:00,87.4,64.1,29.99,West,274,0.0,0.0,46,0.00,,---,0.00,VWS V14.01,2013-05-31 22:35:00,
2013-05-31 18:40:00,87.0,68.9,29.99,NW,323,0.0,0.0,55,0.00,,---,0.00,VWS V14.01,2013-05-31 22:40:00,
2013-05-31 18:45:00,86.1,69.1,29.99,NW,322,0.0,0.0,57,0.00,,---,0.00,VWS V14.01,2013-05-31 22:45:00,
2013-05-31 18:50:00,85.1,69.7,29.99,NW,321,0.0,0.0,60,0.00,,---,0.00,VWS V14.01,2013-05-31 22:50:00,
2013-05-31 18:55:00,84.3,69.4,29.99,NW,322,0.0,0.0,61,0.00,,---,0.00,VWS V14.01,2013-05-31 22:55:00,
2013-05-31 19:00:00,83.8,68.9,29.99,NW,322,0.0,0.0,61,0.00,,---,0.00,VWS V14.01,2013-05-31 23:00:00,
2013-05-31 19:05:00,83.6,69.2,29.98,NW,321,0.0,0.0,62,0.00,,---,0.00,VWS V14.01,2013-05-31 23:05:00,
2013-05-31 19:10:00,83.6,69.2,29.98,NW,321,0.0,0.0,62,0.00,,---,0.00,VWS V14.01,2013-05-31 23:10:00,
2013-05-31 19:15:00,83.9,70.0,29.98,NW,322,0.0,0.0,63,0.00,,---,0.00,VWS V14.01,2013-05-31 23:15:00,
2013-05-31 19:20:00,84.6,69.7,29.98,NW,322,0.0,0.0,61,0.00,,---,0.00,VWS V14.01,2013-05-31 23:20:00,
2013-05-31 19:25:00,85.1,69.7,29.98,NW,322,0.0,0.0,60,0.00,,---,0.00,VWS V14.01,2013-05-31 23:25:00,
2013-05-31 19:30:00,85.0,70.1,29.98,NW,321,0.0,0.0,61,0.00,,---,0.00,VWS V14.01,2013-05-31 23:30:00,
2013-05-31 19:35:00,84.3,69.4,29.99,NW,322,0.0,0.0,61,0.00,,---,0.00,VWS V14.01,2013-05-31 23:35:00,
2013-05-31 19:40:00,83.3,68.9,29.99,NW,322,0.0,0.0,62,0.00,,---,0.00,VWS V14.01,2013-05-31 23:40:00,
2013-05-31 19:45:00,82.3,68.9,29.99,NW,322,0.0,0.0,64,0.00,,---,0.00,VWS V14.01,2013-05-31 23:45:00,
2013-05-31 19:50:00,81.3,68.9,29.98,NW,322,0.0,0.0,66,0.00,,---,0.00,VWS V14.01,2013-05-31 23:50:00,
2013-05-31 19:55:00,80.3,68.3,29.99,NW,322,0.0,0.0,67,0.00,,---,0.00,VWS V14.01,2013-05-31 23:55:00,
2013-05-31 20:00:00,79.4,67.9,29.98,NW,322,0.0,0.0,68,0.00,,---,0.00,VWS V14.01,2013-06-01 00:00:00,
2013-05-31 20:05:00,78.6,68.0,29.99,NW,322,0.0,0.0,70,0.00,,---,0.00,VWS V14.01,2013-06-01 00:05:00,
2013-05-31 20:10:00,78.0,67.8,29.99,NW,321,0.0,0.0,71,0.00,,---,0.00,VWS V14.01,2013-06-01 00:10:00,
2013-05-31 20:15:00,77.4,66.4,29.99,NW,322,0.0,0.0,69,0.00,,---,0.00,VWS V14.01,2013-06-01 00:15:00,
2013-05-31 20:20:00,76.9,67.2,29.99,NW,322,0.0,0.0,72,0.00,,---,0.00,VWS V14.01,2013-06-01 00:20:00,
2013-05-31 20:25:00,76.4,67.5,29.99,NW,321,0.0,0.0,74,0.00,,---,0.00,VWS V14.01,2013-06-01 00:25:00,
2013-05-31 20:30:00,75.9,67.0,29.99,NW,322,0.0,0.0,74,0.00,,---,0.00,VWS V14.01,2013-06-01 00:30:00,
2013-05-31 20:35:00,75.4,66.9,29.99,NW,321,0.0,0.0,75,0.00,,---,0.00,VWS V14.01,2013-06-01 00:35:00,
2013-05-31 20:40:00,75.0,66.6,29.99,NW,321,0.0,0.0,75,0.00,,---,0.00,VWS V14.01,2013-06-01 00:40:00,
2013-05-31 20:45:00,74.7,66.3,29.99,NW,322,0.0,0.0,75,0.00,,---,0.00,VWS V14.01,2013-06-01 00:45:00,
2013-05-31 20:50:00,74.3,66.6,29.99,NW,322,0.0,0.0,77,0.00,,---,0.00,VWS V14.01,2013-06-01 00:50:00,
2013-05-31 20:55:00,74.0,66.3,30.00,NW,321,0.0,0.0,77,0.00,,---,0.00,VWS V14.01,2013-06-01 00:55:00,
2013-05-31 21:00:00,73.6,65.9,30.00,NW,322,0.0,0.0,77,0.00,,---,0.00,VWS V14.01,2013-06-01 01:00:00,
2013-05-31 21:05:00,73.3,66.0,30.00,NW,322,0.0,0.0,78,0.00,,---,0.00,VWS V14.01,2013-06-01 01:05:00,
2013-05-31 21:10:00,73.0,65.7,30.00,NW,321,0.0,0.0,78,0.00,,---,0.00,VWS V14.01,2013-06-01 01:10:00,
2013-05-31 21:15:00,72.8,65.9,30.00,NW,321,0.0,0.0,79,0.00,,---,0.00,VWS V14.01,2013-06-01 01:15:00,
2013-05-31 21:20:00,72.6,66.1,30.00,NW,321,0.0,0.0,80,0.00,,---,0.00,VWS V14.01,2013-06-01 01:20:00,
2013-05-31 21:25:00,72.3,66.2,30.01,NW,322,0.0,0.0,81,0.00,,---,0.00,VWS V14.01,2013-06-01 01:25:00,
2013-05-31 21:30:00,72.1,65.9,30.01,NW,322,0.0,0.0,81,0.00,,---,0.00,VWS V14.01,2013-06-01 01:30:00,
2013-05-31 21:35:00,71.9,66.1,30.01,NW,321,0.0,0.0,82,0.00,,---,0.00,VWS V14.01,2013-06-01 01:35:00,
2013-05-31 21:40:00,71.6,66.2,30.01,NW,321,0.0,0.0,83,0.00,,---,0.00,VWS V14.01,2013-06-01 01:40:00,
2013-05-31 21:45:00,71.4,66.0,30.01,NW,321,0.0,0.0,83,0.00,,---,0.00,VWS V14.01,2013-06-01 01:45:00,
2013-05-31 21:50:00,71.2,66.1,30.01,NW,321,0.0,0.0,84,0.00,,---,0.00,VWS V14.01,2013-06-01 01:50:00,
2013-05-31 21:55:00,71.0,65.9,30.02,NW,322,0.0,0.0,84,0.00,,---,0.00,VWS V14.01,2013-06-01 01:55:00,
2013-05-31 22:00:00,70.7,66.0,30.02,NW,321,0.0,0.0,85,0.00,,---,0.00,VWS V14.01,2013-06-01 02:00:00,
2013-05-31 22:05:00,70.5,66.1,30.02,NW,322,0.0,0.0,86,0.00,,---,0.00,VWS V14.01,2013-06-01 02:05:00,
2013-05-31 22:10:00,70.4,66.0,30.02,NW,322,0.0,0.0,86,0.00,,---,0.00,VWS V14.01,2013-06-01 02:10:00,
2013-05-31 22:15:00,70.2,65.8,30.02,NW,322,0.0,0.0,86,0.00,,---,0.00,VWS V14.01,2013-06-01 02:15:00,
2013-05-31 22:20:00,69.9,65.9,30.02,NW,322,0.0,0.0,87,0.00,,---,0.00,VWS V14.01,2013-06-01 02:20:00,
2013-05-31 22:24:00,69.6,65.6,30.02,NW,322,0.0,0.0,87,0.00,,---,0.00,VWS V14.01,2013-06-01 02:24:00,
2013-05-31 22:29:00,69.5,65.8,30.02,NW,322,0.0,0.0,88,0.00,,---,0.00,VWS V14.01,2013-06-01 02:29:00,
2013-05-31 22:34:00,69.3,65.6,30.02,NW,322,0.0,0.0,88,0.00,,---,0.00,VWS V14.01,2013-06-01 02:34:00,
2013-05-31 22:39:00,69.3,65.9,30.03,NW,322,0.0,0.0,89,0.00,,---,0.00,VWS V14.01,2013-06-01 02:39:00,
2013-05-31 22:44:00,69.2,65.8,30.03,NW,322,0.0,0.0,89,0.00,,---,0.00,VWS V14.01,2013-06-01 02:44:00,
2013-05-31 22:49:00,69.1,66.1,30.03,NW,321,0.0,0.0,90,0.00,,---,0.00,VWS V14.01,2013-06-01 02:49:00,
2013-05-31 22:54:00,69.0,65.9,30.03,NW,321,0.0,0.0,90,0.00,,---,0.00,VWS V14.01,2013-06-01 02:54:00,
2013-05-31 22:59:00,68.9,66.2,30.02,NW,321,0.0,0.0,91,0.00,,---,0.00,VWS V14.01,2013-06-01 02:59:00,
2013-05-31 23:04:00,68.8,66.1,30.03,NW,321,0.0,0.0,91,0.00,,---,0.00,VWS V14.01,2013-06-01 03:04:00,
2013-05-31 23:09:00,68.7,66.0,30.02,NW,322,0.0,0.0,91,0.00,,---,0.00,VWS V14.01,2013-06-01 03:09:00,
2013-05-31 23:14:00,68.6,65.9,30.02,NW,321,0.0,0.0,91,0.00,,---,0.00,VWS V14.01,2013-06-01 03:14:00,
2013-05-31 23:19:00,68.5,65.8,30.02,NW,321,0.0,0.0,91,0.00,,---,0.00,VWS V14.01,2013-06-01 03:19:00,
2013-05-31 23:24:00,68.4,66.0,30.02,NW,323,0.0,0.0,92,0.00,,---,0.00,VWS V14.01,2013-06-01 03:24:00,
2013-05-31 23:29:00,68.3,65.9,30.02,NW,322,0.0,0.0,92,0.00,,---,0.00,VWS V14.01,2013-06-01 03:29:00,
2013-05-31 23:34:00,68.2,65.8,30.02,NW,323,0.0,0.0,92,0.00,,---,0.00,VWS V14.01,2013-06-01 03:34:00,
2013-05-31 23:39:00,68.1,65.7,30.02,NW,323,0.0,0.0,92,0.00,,---,0.00,VWS V14.01,2013-06-01 03:39:00,
2013-05-31 23:44:00,68.0,65.6,30.02,NW,321,0.0,0.0,92,0.00,,---,0.00,VWS V14.01,2013-06-01 03:44:00,
2013-05-31 23:49:00,67.9,65.5,30.02,NW,322,0.0,0.0,92,0.00,,---,0.00,VWS V14.01,2013-06-01 03:49:00,
2013-05-31 23:54:00,67.8,65.7,30.02,NW,323,0.0,0.0,93,0.00,,---,0.00,VWS V14.01,2013-06-01 03:54:00,
2013-05-31 23:59:00,67.7,65.6,30.02,NW,323,0.0,0.0,93,0.00,,---,0.00,VWS V14.01,2013-06-01 03:59:00,